Flag for U.S.A. Weather past 2 weeks in Kansas City, Missouri, U.S.A.

Now
81 °F

Sunny.


Feels Like: 86 °F
Forecast: 72 / 91 °F
Wind: 3 mph from West

Location: Kansas City Downtown Airport

Current Time: Aug 1, 2015 at 9:58:16 AM

Latest Report: Aug 1, 2015 at 8:54 AM


Visibility: 10 mi

Pressure: 30.02 "Hg

Humidity: 77%

Dew point: 73 °F

Location of Kansas CityLocation

Historic Weather in Kansas City — Graph

°F

Kansas City temperature yesterday

Maximum temperature yesterday: 91 °F (at 3:54 PM)
Minimum temperature yesterday: 68 °F (at 3:54 AM)
Average temperature yesterday: 80 °F

Past Weeks' High & Low Weather Summary

 TemperatureHumidityPressure
High97 °F (Jul 24, 3:54 PM)97% (Jul 20, 8:01 AM)30.19 "Hg (Jul 20, 8:01 AM)
Low66 °F (Jul 22, 5:54 AM)29% (Jul 30, 3:54 PM)29.75 "Hg (Jul 17, 6:54 PM)
Average82 °F70%29.92 "Hg
* Reported Jul 17 7:54 AM — Aug 1 7:54 AM, Kansas City, Weather by CustomWeather, © 2015

Note: Actual official high and low records may vary slightly from our data, if they occured in-between our weather recording intervals... More about our weather records

Advertising

Kansas City weather history for previous 24 hours

 ConditionsComfort  
Time TempWeatherWind HumidityBarometerVisibility
7:54 AM
Sat, Aug 1
79 °FSunny.3 mph79%30.02 "Hg10 mi
6:54 AM75 °FClear.3 mph85%30.01 "Hg10 mi
5:54 AM75 °FClear.No wind79%30.01 "Hg10 mi
4:54 AM75 °FClear.5 mph76%30.01 "Hg10 mi
3:54 AM77 °FClear.3 mph71%30.01 "Hg10 mi
2:54 AM78 °FClear.No wind74%30.01 "Hg10 mi
1:54 AM77 °FClear.No wind82%30.02 "Hg10 mi
12:54 AM79 °FClear.No wind77%30.03 "Hg10 mi
11:54 PM
Fri, Jul 31
80 °FClear.No wind74%30.04 "Hg10 mi
10:54 PM80 °FClear.No wind69%30.03 "Hg10 mi
9:54 PM82 °FClear.3 mph63%30.02 "Hg10 mi
8:54 PM85 °FSunny.No wind57%30.01 "Hg10 mi
7:54 PM86 °FSunny.3 mph55%30.01 "Hg10 mi
6:54 PM88 °FSunny.6 mph50%30.01 "Hg10 mi
5:54 PM90 °FSunny.6 mph48%30.01 "Hg10 mi
4:54 PM90 °FSunny.6 mph48%30.03 "Hg10 mi
3:54 PM91 °FSunny.6 mph47%30.04 "Hg10 mi
2:54 PM90 °FSunny.7 mph41%30.07 "Hg10 mi
1:54 PM89 °FSunny.8 mph45%30.09 "Hg10 mi
12:54 PM88 °FSunny.6 mph45%30.10 "Hg10 mi
11:54 AM85 °FSunny.5 mph46%30.12 "Hg10 mi
10:54 AM84 °FSunny.6 mph53%30.12 "Hg10 mi
9:54 AM81 °FSunny.8 mph62%30.13 "Hg10 mi
Weather by CustomWeather, © 2015

See weather overviewHow to use our weather pages